Retour au catalogue

STARLINK-5760

ActifCommunicationsVLEO
NORAD 55591·PAYLOAD·🇺🇸 United States

Lancé Feb 12, 2023 depuis Cape Canaveral Space Force Station

Loading…

Prochains Passages (prochaines 24 heures)

TLE

FraisSource: CelesTrak SupGP

Époque: Sep 15, 2026, 02:08 UTC

1 55591C 23020Y   26258.08937500 -.00021063  00000+0 -76281-3 0  2585
2 55591  43.0046  15.6880 0002258 276.4870 229.0519 15.27590470    12

Suivez STARLINK-5760 en temps réel avec AllMySat

Download on the App Store